x

Boston 16 Nm East Of Boston, Ma (44013) Wave Buoy

12:50pm - Sun 26th Feb 2017 All times are EST. -5 hours from GMT.

  • Sig Wave height 3.6ft
  • Swell Direction
  • Peak Period 4s
  • Average Period 4s
  • Wind
    25mph, 29mph gusts
  • Sea Temp 42°f
  • Air Temp 40°f
  • Sea Pressure 1008.9mb
  • Boston 16 Nm East Of Boston, Ma
  • Boston 16 Nm East Of Boston, Ma

More Historic Weather Station data

Upgrade to MSW Pro to gain access to the past 30 days of data for over 8000 Wavebouys and Weather Stations around the globe.

Join Pro

Comparision Forecast

View Surf forecast
   
Sun 02/26 12:50pm 3.5ft 4s 4s 25 29 mph 1008.9mb 42f 40f
11:50am 3.5ft 4s 4s 25 31 mph 1008.4mb 42f 40f
10:50am 3.5ft 4s 4s 25 29 mph 1008mb 42f 39f
9:50am 3.5ft 4s 4s 25 29 mph 1007.8mb 42f 39f
8:50am 3.5ft 5s 4s 27 31 mph 1007mb 42f 39f
7:50am 3.5ft 4s 4s 29 36 mph 1005.6mb 42f 40f
6:50am 4ft 4s 4s 27 31 mph 1004mb 42f 40f
5:50am 4ft 4s 4s 29 36 mph 1002.7mb 43f 41f
4:50am 3.5ft 4s 4s 31 38 mph 1001.5mb 43f 42f
3:50am 2.5ft 4s 4s 25 29 mph 1000mb 43f 44f
2:50am 3ft 4s 4s 25 34 mph 998.8mb 43f 44f
1:50am 2.5ft 3s 4s 22 27 mph 997.5mb 43f 45f
12:50am 2ft 10s 4s 20 22 mph 996.6mb 43f 46f
Sat 02/25 11:50pm 2ft 10s 5s 22 25 mph 995.8mb 43f 47f
10:50pm 2ft 10s 4s 9 11 mph 996.2mb 43f 48f
9:50pm 2ft 11s 4s 13 16 mph 996.7mb 43f 46f
8:50pm 2ft 11s 4s 13 16 mph 996.9mb 43f 46f
7:50pm 2.5ft 11s 4s 13
mph
998.4mb 43f 46f
6:50pm 2.5ft 11s 4s 11 13 mph 999mb 43f 46f
5:50pm 2.5ft 11s 4s 18
mph
999.6mb 43f 48f
4:50pm 2.5ft 11s 4s 20 22 mph 1000.5mb 43f 49f
3:50pm 2.5ft 10s 4s 18 20 mph 1002.8mb 43f 49f
2:50pm 2.5ft 11s 4s 16 18 mph 1003.7mb 44f 49f
1:50pm 2.5ft 11s 4s 18 20 mph 1004.5mb 44f 52f
12:50pm 2.5ft 11s 4s 16 18 mph 1005.2mb 43f 50f
11:50am 2.5ft 11s 4s 16 18 mph 1006.5mb 43f 48f
10:50am 2.5ft 11s 5s 13 16 mph 1007.9mb 43f 47f
9:50am 2ft 11s 5s 11 13 mph 1009mb 43f 45f
8:50am 2ft 12s 4s 13
mph
1009.7mb 43f 44f
7:50am 2ft 11s 4s 13
mph
1010.4mb 43f 44f
6:50am 2ft 9s 4s 18 20 mph 1009.8mb 43f 44f
5:50am 2ft 9s 5s 16 18 mph 1009.9mb 43f 47f
4:50am 2ft 9s 6s 11 13 mph 1010.7mb 43f 47f
3:50am 2ft 10s 6s 11
mph
1010.6mb 43f 46f
2:50am 2ft 9s 5s 9 11 mph 1010.8mb 43f 45f
1:50am 2.5ft 9s 5s 7 9 mph 1011mb 43f 48f
12:50am 2ft 10s 5s 9
mph
1010.7mb 43f 47f
Fri 02/24 11:50pm 2.5ft 10s 5s 16
mph
1010.3mb 43f 49f
10:50pm 2.5ft 10s 5s 16 18 mph 1010.6mb 43f 49f
9:50pm 2.5ft 10s 6s 13
mph
1010.9mb 43f 50f
8:50pm 2.5ft 10s 5s 9
mph
1011.4mb 43f 49f
7:50pm 2.5ft 10s 5s 11
mph
1011.7mb 43f 49f
6:50pm 3ft 10s 5s 16 18 mph 1011.5mb 43f 53f
5:50pm 3ft 10s 4s 18 20 mph 1011mb 43f 55f
4:50pm 3ft 9s 5s 16 20 mph 1010.8mb 43f 55f
3:50pm 3ft 10s 5s 20 25 mph 1010.4mb 43f 58f
2:50pm 3ft 10s 5s 13 16 mph 1010.7mb 43f 57f
1:50pm 2.5ft 10s 5s 16 18 mph 1010.8mb 43f 58f
12:50pm 2.5ft 10s 7s 9 11 mph 1011.5mb 43f 55f
11:50am 2.5ft 10s 8s 11 13 mph 1012.4mb 43f 47f
10:50am 2.5ft 11s 8s 9 11 mph 1013.3mb 43f 46f
9:50am 2.5ft 11s 8s 9 11 mph 1013.2mb 42f 45f
8:50am 2.5ft 11s 7s 11
mph
1013.3mb 42f 45f
7:50am 2.5ft 11s 7s 11 13 mph 1013mb 42f 46f
6:50am 2.5ft 11s 7s 11
mph
1012.7mb 42f 45f
5:50am 2.5ft 11s 7s 13
mph
1012.6mb 42f 47f
4:50am 2.5ft 10s 7s 9 13 mph 1012.3mb 42f 46f
3:50am 2.5ft 10s 7s 7 9 mph 1012mb 42f 45f
2:50am 3.5ft 10s 7s 2
mph
1011.8mb 42f 47f
1:50am 3ft 11s 6s 7
mph
1011.6mb 42f 46f
12:50am 3ft 10s 6s 9
mph
1011mb 42f 47f
Thu 02/23 11:50pm 3.5ft 11s 6s 11
mph
1010.6mb 42f 48f
10:50pm 3.5ft 10s 5s 11
mph
1010mb 42f 48f
9:50pm 3.5ft 11s 5s 13 16 mph 1009.7mb 42f 49f
8:50pm 3.5ft 11s 5s 18 22 mph 1009.1mb 43f 49f
7:50pm 3.5ft 11s 5s 13 16 mph 1008.9mb 43f 49f
6:50pm 3.5ft 11s 5s 11 13 mph 1008.3mb 43f 49f
5:50pm 3.5ft 10s 5s 16 18 mph 1007.1mb 43f 51f
4:50pm 3.5ft 9s 5s 16 18 mph 1006.1mb 43f 52f
3:50pm 3.5ft 9s 6s 16 18 mph 1006.5mb 43f 54f
2:50pm 3.5ft 10s 7s 11 13 mph 1006.8mb 43f 52f
1:50pm 3.5ft 10s 6s 16
mph
1007.1mb 43f 54f
12:50pm 3ft 10s 7s 11 13 mph 1007.8mb 43f 51f
11:50am 3.5ft 10s 7s 11 13 mph 1008.8mb 42f 45f
10:50am 3ft 10s 8s 11 13 mph 1009.8mb 42f 44f
9:50am 3.5ft 10s 8s 9 11 mph 1010.6mb 42f 42f
8:50am 3ft 10s 8s 9 11 mph 1011.1mb 42f 42f
7:50am 3ft 10s 8s 9 11 mph 1010.9mb 42f 42f
6:50am 3ft 8s 8s 7 9 mph 1010.6mb 42f 41f
5:50am 2.5ft 10s 7s 9 11 mph 1010.7mb 42f 41f
4:50am 3ft 10s 8s 9 11 mph 1010.4mb 42f 42f
3:50am 3ft 10s 8s 7
mph
1010.7mb 42f 42f
2:50am 3ft 9s 8s 7 9 mph 1010.9mb 42f 42f
1:50am 2.5ft 10s 8s 7
mph
1010.9mb 42f 42f
12:50am 2.5ft 10s 8s 9
mph
1010.9mb 42f 42f
Wed 02/22 11:50pm 2.5ft 10s 8s 7
mph
1010.9mb 42f 42f
10:50pm 2.5ft 10s 7s 4 7 mph 1011mb 42f 42f
9:50pm 2.5ft 10s 7s 9 11 mph 1011mb 42f 42f
8:50pm 2.5ft 11s 7s 11
mph
1011.4mb 42f 42f
7:50pm 2ft 11s 7s 11 13 mph 1011.5mb 42f 43f